Weather History for Belo Horizonte, Brazil

Change the Weather History Date:

Friday, September 20, 2013

  Actual Average Record
Temperature  
Mean Temperature 74 °F -  
Max Temperature 82 °F 80 °F 91 °F (1998)
Min Temperature 66 °F 60 °F 51 °F (2011)
Cooling Degree Days 9    
Growing Degree Days 24 (Base 50)    
Moisture  
Dew Point 57 °F    
Average Humidity 59    
Maximum Humidity 83    
Minimum Humidity 37    
Precipitation  
Precipitation 0.00 in - - ()
Sea Level Pressure  
Sea Level Pressure 30.13 in    
Wind  
Wind Speed 8 mph ()    
Max Wind Speed 13 mph    
Max Gust Speed -    
Visibility 6.2 miles    
Events      
Averages and records for this station are not official NWS values.
T = Trace of Precipitation, MM = Missing Value Source: Averaged Metar Reports

Daily Weather History Graph

Daily Weather History Graph

Search for Another Location

Airport:

Trip Planner

Search our weather history database for the weather conditions in past years. The results will help you decide how hot, cold, wet, or windy it might be!

Date:

Astronomy

Sep. 20, 2013 Rise Set
Actual Time 5:47 AM BRT 5:51 PM BRT
Civil Twilight 5:25 AM BRT 6:13 PM BRT
Nautical Twilight 4:59 AM BRT 6:39 PM BRT
Astronomical Twilight 4:34 AM BRT 7:04 PM BRT
Moon 7:05 PM BRT (9/20) 6:18 AM BRT (9/20)
Length of Visible Light 12h 48m
Length of Day
12h 04m
Full, 98% of the Moon is Illuminated
Sep 20
Full
Sep 27
Last Quarter
Oct 4
New
Oct 11
First Quarter
Oct 18
Full

Hourly Weather History & Observations

Time (BRT) Temp. Heat Index Dew Point Humidity Pressure Visibility Wind Dir Wind Speed Gust Speed Precip Events Conditions
12:00 AM 71.6 °F - 59.0 °F 64% 30.18 in - ESE 9.2 mph - N/A   Clear
1:00 AM 68.0 °F - 59.0 °F 73% 30.18 in - East 10.4 mph - N/A   Clear
2:00 AM 69.8 °F - 59.0 °F 68% 30.15 in - ESE 8.1 mph - N/A   Clear
3:00 AM 68.0 °F - 59.0 °F 73% 30.15 in - East 9.2 mph - N/A   Clear
4:00 AM 68.0 °F - 59.0 °F 73% 30.15 in - ESE 8.1 mph - N/A   Clear
5:00 AM 66.2 °F - 59.0 °F 78% 30.18 in - ESE 6.9 mph - N/A   Clear
6:00 AM 66.2 °F - 60.8 °F 83% 30.18 in - East 9.2 mph - N/A   Clear
7:00 AM 66.2 °F - 60.8 °F 83% 30.18 in - ENE 6.9 mph - N/A   Clear
8:00 AM 68.0 °F - 60.8 °F 78% 30.21 in 6.2 mi ENE 8.1 mph - N/A   Scattered Clouds
9:00 AM 71.6 °F - 60.8 °F 69% 30.21 in 6.2 mi East 5.8 mph - N/A   Scattered Clouds
10:00 AM 75.2 °F - 57.2 °F 53% 30.21 in 6.2 mi ENE 8.1 mph - N/A   Scattered Clouds
11:00 AM 77.0 °F - 57.2 °F 50% 30.21 in 6.2 mi South 3.5 mph - N/A   Scattered Clouds
12:00 PM 80.6 °F 80.5 °F 55.4 °F 42% 30.15 in 6.2 mi NNE 12.7 mph - N/A   Scattered Clouds
1:00 PM 80.6 °F 80.3 °F 53.6 °F 39% 30.09 in 6.2 mi NNE 11.5 mph - N/A   Scattered Clouds
2:00 PM 82.4 °F 81.4 °F 53.6 °F 37% 30.06 in 6.2 mi NE 10.4 mph - N/A   Partly Cloudy
3:00 PM 82.4 °F 81.4 °F 53.6 °F 37% 30.04 in - NNE 12.7 mph - N/A   Clear
4:00 PM 82.4 °F 81.4 °F 53.6 °F 37% 30.04 in - NNE 10.4 mph - N/A   Clear
5:00 PM 80.6 °F 80.5 °F 55.4 °F 42% 30.04 in - NNE 12.7 mph - N/A   Clear
6:00 PM 78.8 °F - 57.2 °F 47% 30.06 in - NE 8.1 mph - N/A   Clear
7:00 PM 75.2 °F - 55.4 °F 50% 30.06 in - East 11.5 mph - N/A   Clear
8:00 PM 73.4 °F - 57.2 °F 57% 30.09 in - East 10.4 mph - N/A   Clear
9:00 PM 71.6 °F - 55.4 °F 57% 30.09 in - East 12.7 mph - N/A   Clear
10:00 PM 69.8 °F - 57.2 °F 64% 30.12 in - East 9.2 mph - N/A   Clear
11:00 PM 68.0 °F - 55.4 °F 64% 30.12 in 6.2 mi East 6.9 mph - N/A   Partly Cloudy